Home > Time Zones > World Clock > Weather > Spain > Cadiz > Past weeks

Flag for Spain Weather past 2 weeks in Cadiz, Cádiz, Spain

Now
61 °F

Clear.


Feels Like: 61 °F
Forecast: 64 / 71 °F
Wind: 7 mph from East

Location: Rota Airport

Current Time: May 23, 2015 at 8:53:59 AM

Latest Report: May 23, 2015 at 8:00 AM


Visibility: 10 mi

Pressure: 29.98 "Hg

Humidity: 59%

Dew point: 46 °F

Location of CadizLocation

Historic Weather in Cadiz — Graph

°F

Cadiz temperature yesterday

Maximum temperature yesterday: 79 °F (at 2:00 PM)
Minimum temperature yesterday: 59 °F (at 7:00 AM)
Average temperature yesterday: 70 °F

Past Weeks' High & Low Weather Summary

 TemperatureHumidityPressure
High97 °F (May 13, 3:00 PM)100% (May 19, 5:00 AM)30.24 "Hg (May 19, 5:00 AM)
Low57 °F (May 9, 8:00 AM)13% (May 13, 3:00 PM)29.83 "Hg (May 19, 6:00 AM)
Average72 °F57%30.06 "Hg
* Reported May 8 7:00 AM — May 23 7:00 AM, Cadiz, Weather by CustomWeather, © 2015

Note: Actual official high and low records may vary slightly from our data, if they occured in-between our weather recording intervals... More about our weather records

Advertising

Cadiz weather history for previous 24 hours

 ConditionsComfort  
Time TempWeatherWind HumidityBarometerVisibility
7:00 AM
Sat, May 23
59 °FClear.5 mph72%29.95 "Hg10 mi
5:00 AM61 °FClear.6 mph68%29.98 "Hg10 mi
4:00 AM63 °FClear.9 mph64%29.98 "Hg10 mi
3:00 AM64 °FClear.9 mph60%30.01 "Hg10 mi
2:00 AM64 °FClear.13 mph64%30.01 "Hg10 mi
1:00 AM64 °FPassing clouds.3 mph64%30.01 "HgN/A
12:00 AM66 °FPassing clouds.6 mph60%30.04 "HgN/A
11:00 PM
Fri, May 22
68 °FClear.5 mph53%30.01 "Hg10 mi
10:00 PM70 °FPassing clouds.12 mph43%30.01 "HgN/A
9:00 PM72 °FPassing clouds.9 mph44%30.01 "HgN/A
8:00 PM73 °FPassing clouds.9 mph57%29.98 "HgN/A
7:00 PM75 °FPassing clouds.10 mph50%30.01 "HgN/A
6:00 PM77 °FSunny.9 mph44%30.01 "Hg10 mi
5:00 PM77 °FPassing clouds.9 mph44%30.01 "HgN/A
4:00 PM79 °FPassing clouds.9 mph39%30.01 "HgN/A
3:00 PM79 °FPassing clouds.12 mph32%30.04 "HgN/A
2:00 PM79 °FPassing clouds.12 mph34%30.04 "HgN/A
1:00 PM77 °FSunny.10 mph32%30.07 "Hg10 mi
12:00 PM77 °FPassing clouds.18 mph30%30.07 "HgN/A
11:00 AM75 °FPassing clouds.14 mph31%30.09 "HgN/A
10:00 AM72 °FSunny.14 mph36%30.09 "Hg10 mi
9:00 AM66 °FSunny.10 mph43%30.09 "Hg10 mi
8:00 AM61 °FClear.7 mph55%30.09 "Hg10 mi
Weather by CustomWeather, © 2015

See weather overviewHow to use our weather pages